RH
12 12 12 12 12 13 14 14 14 14 13 13 13 13 12 11 12 12 12 12 11 10 10 9 9 9 9 9 11 12 14 14 11 10 12 11 10 10 10 10 10 9 10 10 10
13 13 13 13 14 14 15 15 15 16 15 15 14 14 13 12 13 14 14 13 12 11 11 10 11 11 10 10 10 13 15 13 11 10 11 11 11 11 12 12 11 11 11 12 12
15 15 15 15 16 16 15 16 17 17 17 16 16 16 16 16 15 16 15 14 13 13 12 12 12 12 12 11 11 12 14 12 12 11 11 12 12 13 14 13 12 12 12 12 13
20 19 19 18 18 17 16 17 18 18 19 19 17 17 17 18 18 18 17 16 15 14 13 13 13 13 13 13 13 12 12 13 13 11 12 13 14 15 15 14 13 12 12 12 14
22 21 21 21 21 21 20 19 20 19 19 20 19 19 19 19 19 18 17 16 15 15 15 14 14 14 14 14 13 13 13 14 13 13 14 15 17 17 16 15 15 13 13 14 15
24 24 24 23 22 22 21 21 21 21 20 20 20 20 20 20 19 17 17 16 15 15 15 15 15 15 14 14 14 14 14 15 15 16 17 18 20 20 18 17 15 13 14 14 17
29 29 28 26 24 24 23 22 21 22 20 20 20 20 20 19 18 16 16 14 14 13 15 15 16 15 15 14 15 16 17 18 19 19 20 20 23 22 21 19 16 15 15 16 19
31 31 30 29 27 25 25 24 23 22 21 21 21 20 18 16 16 15 15 14 13 12 12 14 16 17 15 16 18 19 21 24 22 22 22 22 25 22 21 21 18 16 16 18 21
31 31 32 31 28 27 25 24 22 21 22 23 21 17 14 14 14 14 14 15 14 13 14 15 16 17 19 22 27 25 26 24 23 22 22 23 26 22 21 22 20 18 18 20 24
30 31 31 31 30 29 26 24 23 23 22 20 17 14 14 14 17 17 16 15 14 16 17 17 19 21 24 28 34 26 26 26 26 24 24 24 24 23 23 23 21 21 21 23 25
30 30 30 31 29 26 26 24 22 18 18 18 15 14 16 20 23 24 23 21 20 18 19 20 24 25 24 23 24 24 26 29 31 27 26 26 25 24 21 23 24 24 24 25 27
30 30 30 29 26 24 20 15 16 17 19 16 15 19 22 22 24 26 27 27 26 28 28 29 29 27 27 28 28 28 32 37 31 28 28 27 27 24 21 22 24 24 24 25 29
31 30 29 27 22 14 13 13 15 17 18 16 17 18 19 21 25 27 28 30 31 32 31 31 29 30 30 30 32 33 33 32 32 31 31 31 30 28 22 23 24 22 24 27 32
30 27 20 16 15 13 11 12 13 16 25 18 16 18 22 23 26 27 27 27 28 28 31 30 28 29 30 30 31 37 34 34 33 38 42 34 39 27 23 25 23 23 26 31 34
15 16 14 13 13 13 12 12 13 18 36 19 18 19 20 20 22 23 23 24 27 27 30 31 30 32 32 33 35 36 36 36 35 46 49 40 46 32 32 28 27 27 32 33 35
9 10 12 12 13 14 14 13 16 30 26 21 19 20 21 22 24 25 24 25 29 32 34 37 36 36 36 39 39 40 43 40 43 51 55 47 47 42 32 29 29 33 35 33 35
8 11 13 13 14 14 15 16 27 27 21 21 21 22 25 26 26 25 27 33 39 41 42 42 40 42 43 45 43 47 52 56 53 61 55 45 46 42 38 36 34 38 37 36 38
10 13 13 12 14 14 16 21 21 22 24 21 22 24 26 26 25 26 31 38 39 45 55 54 49 47 50 50 51 53 57 58 51 60 57 41 48 40 39 36 40 40 40 41 44
10 12 13 12 14 15 20 26 27 24 21 23 24 25 27 26 24 31 37 42 42 47 51 58 52 49 50 51 55 58 63 48 57 65 67 54 46 41 39 39 40 46 44 43 47
10 11 12 12 14 17 19 25 24 21 22 22 25 25 26 30 30 35 42 45 47 48 53 59 63 54 55 56 55 65 62 62 71 62 64 57 58 52 42 45 47 47 45 45 45
10 13 12 14 15 15 26 24 21 20 22 23 25 26 33 32 35 38 44 47 45 48 55 64 67 62 61 65 68 65 69 64 72 72 72 74 61 54 48 54 50 47 42 40 38
11 15 13 16 17 20 22 21 20 22 22 23 25 31 34 37 42 46 46 48 49 51 62 68 71 75 63 65 69 71 69 69 75 65 71 72 57 46 52 53 47 45 41 41 35
14 16 15 15 25 24 21 22 22 23 24 27 29 32 38 42 52 53 52 52 51 55 67 73 76 81 69 65 63 65 64 69 67 65 65 73 55 47 51 49 47 42 40 37 35
19 21 20 21 23 26 28 27 27 27 28 30 35 41 44 46 50 58 60 57 53 60 71 73 75 76 79 72 72 71 69 64 59 65 62 53 44 39 45 48 44 40 37 35 33
26 27 31 32 29 30 32 35 33 33 33 37 43 49 53 57 57 58 59 62 65 70 73 71 70 73 71 65 66 62 56 58 54 51 59 42 49 39 48 45 43 38 37 34 34
31 33 35 33 32 35 38 40 37 37 40 46 51 59 60 67 69 73 69 70 74 76 76 70 68 66 63 56 59 55 45 52 54 53 55 50 46 45 43 43 44 42 36 35 34
35 38 38 39 38 40 42 40 42 48 51 57 64 67 71 74 74 71 71 74 77 81 79 69 62 66 64 57 61 56 48 55 53 52 52 57 46 47 46 46 46 37 38 38 37